User: anonymous   Login
Location: Oshawa
(43.9000°N, 78.8670°W)
Time: 17:06:27
(UTC-04:00)
Language:

SPOT 5 - Orbit

View from above orbital plane
View from above orbital plane
View from above satellite
View from above satellite

Ground track
Ground track

The orbit data is extracted from the following two-line orbital elements,

1 27421U 02021A   16209.46901053  .00000008  00000-0  13935-4 0  9990
2 27421  98.4530 265.5757 0134205 241.8373 116.9213 14.51807802738554
Epoch (UTC): 27 July 2016 11:15:22
Eccentricity: 0.0134205
inclination: 98.4530°
perigee height: 624 km
apogee height: 815 km
right ascension of ascending node: 265.5757°
argument of perigee: 241.8373°
revolutions per day: 14.51807802
mean anomaly at epoch: 116.9213°
orbit number at epoch: 73855

The dashed part of the orbit path shows where the satellite is in the earth's shadow,  

DLR